QPF
0.00 0.00 0.01 0.01 0.02 0.03 0.05 0.10 0.20 0.23 0.23 0.20 0.16 0.16 0.17 0.18 0.19 0.19 0.18 0.19 0.20 0.19 0.20 0.22 0.21 0.18 0.18 0.15 0.15 0.15 0.16 0.16 0.15 0.13 0.09 0.06 0.04 0.03 0.03 0.03 0.02 0.02 0.02 0.02
0.00 0.00 0.00 0.00 0.01 0.02 0.04 0.08 0.14 0.16 0.15 0.12 0.09 0.09 0.08 0.08 0.11 0.12 0.10 0.10 0.09 0.08 0.07 0.09 0.10 0.09 0.09 0.09 0.10 0.14 0.15 0.13 0.11 0.10 0.08 0.06 0.04 0.04 0.03 0.03 0.03 0.03 0.03 0.04
0.00 0.00 0.00 0.00 0.00 0.01 0.02 0.03 0.05 0.08 0.09 0.07 0.08 0.08 0.06 0.06 0.06 0.05 0.04 0.03 0.03 0.03 0.02 0.02 0.03 0.02 0.02 0.03 0.04 0.05 0.06 0.05 0.04 0.03 0.03 0.03 0.03 0.02 0.02 0.02 0.02 0.03 0.03 0.03
0.00 0.00 0.00 0.00 0.00 0.00 0.01 0.02 0.03 0.03 0.04 0.05 0.06 0.05 0.03 0.02 0.02 0.01 0.01 0.00 0.00 0.00 0.01 0.01 0.01 0.01 0.01 0.01 0.01 0.01 0.01 0.01 0.01 0.01 0.00 0.01 0.01 0.01 0.01 0.01 0.01 0.01 0.02 0.02
0.00 0.00 0.00 0.00 0.00 0.00 0.00 0.01 0.01 0.02 0.02 0.03 0.03 0.02 0.02 0.01 0.00 0.00 0.00 0.00 0.00 0.00 0.00 0.00 0.00 0.00 0.00 0.00 0.00 0.00 0.00 0.00 0.00 0.00 0.00 0.00 0.00 0.00 0.00 0.00 0.00 0.00 0.01 0.01
0.00 0.00 0.00 0.00 0.00 0.00 0.00 0.00 0.01 0.01 0.01 0.01 0.01 0.01 0.01 0.00 0.00 0.00 0.00 0.00 0.00 0.00 0.00 0.00 0.00 0.00 0.00 0.00 0.00 0.00 0.00 0.00 0.00 0.00 0.00 0.00 0.00 0.00 0.00 0.00 0.00 0.00 0.00 0.01
0.00 0.00 0.00 0.00 0.00 0.00 0.00 0.00 0.00 0.00 0.00 0.00 0.00 0.00 0.00 0.00 0.00 0.00 0.00 0.00 0.00 0.00 0.00 0.00 0.00 0.00 0.00 0.00 0.00 0.00 0.00 0.00 0.00 0.00 0.00 0.00 0.00 0.00 0.00 0.00 0.00 0.00 0.00 0.00
0.00 0.00 0.00 0.00 0.00 0.00 0.00 0.00 0.00 0.00 0.00 0.00 0.00 0.00 0.00 0.00 0.00 0.00 0.00 0.00 0.00 0.00 0.00 0.00 0.00 0.00 0.00 0.00 0.00 0.00 0.00 0.00 0.00 0.00 0.00 0.00 0.00 0.00 0.00 0.00 0.00 0.00 0.00 0.00
0.00 0.00 0.00 0.00 0.00 0.00 0.00 0.00 0.00 0.00 0.00 0.00 0.00 0.00 0.00 0.00 0.00 0.00 0.00 0.00 0.00 0.00 0.00 0.00 0.00 0.00 0.00 0.00 0.00 0.00 0.00 0.00 0.00 0.00 0.00 0.00 0.00 0.00 0.00 0.00 0.00 0.00 0.00 0.00
0.00 0.00 0.00 0.00 0.00 0.00 0.00 0.00 0.00 0.00 0.00 0.00 0.00 0.00 0.00 0.00 0.00 0.00 0.00 0.00 0.00 0.00 0.00 0.00 0.00 0.00 0.00 0.00 0.00 0.00 0.00 0.00 0.00 0.00 0.00 0.00 0.00 0.00 0.00 0.00 0.00 0.00 0.00 0.00
0.00 0.00 0.00 0.00 0.00 0.00 0.00 0.00 0.00 0.00 0.00 0.00 0.00 0.00 0.00 0.00 0.00 0.00 0.00 0.00 0.00 0.00 0.00 0.00 0.00 0.00 0.00 0.00 0.00 0.00 0.00 0.00 0.00 0.00 0.00 0.00 0.00 0.00 0.00 0.00 0.00 0.00 0.00 0.00
0.00 0.00 0.00 0.00 0.00 0.00 0.00 0.00 0.00 0.00 0.00 0.00 0.00 0.00 0.00 0.00 0.00 0.00 0.00 0.00 0.00 0.00 0.00 0.00 0.00 0.00 0.00 0.00 0.00 0.00 0.00 0.00 0.00 0.00 0.00 0.00 0.00 0.00 0.00 0.00 0.00 0.00 0.00 0.00
0.00 0.00 0.00 0.00 0.00 0.00 0.00 0.00 0.00 0.00 0.00 0.00 0.00 0.00 0.00 0.00 0.00 0.00 0.00 0.00 0.00 0.00 0.00 0.00 0.00 0.00 0.00 0.00 0.00 0.00 0.00 0.00 0.00 0.00 0.00 0.00 0.00 0.00 0.00 0.00 0.00 0.00 0.00 0.00
0.00 0.00 0.00 0.00 0.00 0.00 0.00 0.00 0.00 0.00 0.00 0.00 0.00 0.00 0.00 0.00 0.00 0.00 0.00 0.00 0.00 0.00 0.00 0.00 0.00 0.00 0.00 0.00 0.00 0.00 0.00 0.00 0.00 0.00 0.00 0.00 0.00 0.00 0.00 0.01 0.01 0.00 0.00 0.00
0.00 0.00 0.00 0.00 0.00 0.00 0.00 0.00 0.00 0.00 0.00 0.00 0.00 0.00 0.00 0.00 0.00 0.00 0.00 0.00 0.00 0.00 0.00 0.00 0.00 0.00 0.00 0.00 0.00 0.00 0.00 0.00 0.00 0.00 0.00 0.00 0.00 0.00 0.00 0.00 0.00 0.00 0.00 0.00
0.00 0.00 0.00 0.00 0.00 0.00 0.00 0.00 0.00 0.00 0.00 0.00 0.00 0.00 0.00 0.00 0.00 0.00 0.00 0.00 0.00 0.00 0.00 0.00 0.00 0.00 0.00 0.00 0.00 0.00 0.00 0.00 0.00 0.00 0.00 0.00 0.00 0.00 0.00 0.00 0.00 0.00 0.00 0.00
0.00 0.00 0.00 0.00 0.00 0.00 0.00 0.00 0.00 0.00 0.00 0.00 0.00 0.00 0.00 0.00 0.00 0.00 0.00 0.00 0.00 0.00 0.00 0.00 0.00 0.00 0.00 0.00 0.00 0.00 0.00 0.00 0.00 0.00 0.00 0.00 0.00 0.00 0.00 0.00 0.00 0.00 0.00 0.00
0.00 0.00 0.00 0.00 0.00 0.00 0.00 0.00 0.00 0.00 0.00 0.00 0.00 0.00 0.00 0.00 0.00 0.00 0.00 0.00 0.00 0.00 0.00 0.00 0.00 0.00 0.00 0.00 0.00 0.00 0.00 0.00 0.00 0.00 0.00 0.00 0.00 0.00 0.00 0.00 0.00 0.00 0.00 0.00
0.00 0.00 0.00 0.00 0.00 0.00 0.00 0.00 0.00 0.00 0.00 0.00 0.00 0.00 0.00 0.00 0.00 0.00 0.00 0.00 0.00 0.00 0.00 0.00 0.00 0.00 0.00 0.00 0.00 0.00 0.00 0.00 0.00 0.00 0.00 0.00 0.00 0.00 0.00 0.00 0.00 0.00 0.00 0.00
0.00 0.00 0.00 0.00 0.00 0.00 0.00 0.00 0.00 0.00 0.00 0.00 0.00 0.00 0.00 0.00 0.00 0.00 0.00 0.00 0.00 0.00 0.00 0.00 0.00 0.00 0.00 0.00 0.00 0.00 0.00 0.00 0.00 0.00 0.00 0.00 0.00 0.00 0.00 0.00 0.00 0.00 0.00 0.00
0.00 0.00 0.00 0.00 0.00 0.00 0.00 0.00 0.00 0.00 0.00 0.00 0.00 0.00 0.00 0.00 0.00 0.00 0.00 0.00 0.00 0.00 0.00 0.00 0.00 0.00 0.00 0.00 0.00 0.00 0.00 0.00 0.00 0.00 0.00 0.00 0.00 0.00 0.00 0.00 0.00 0.00 0.00 0.00
0.00 0.00 0.00 0.00 0.00 0.00 0.00 0.00 0.00 0.00 0.00 0.00 0.00 0.00 0.00 0.00 0.00 0.00 0.00 0.00 0.00 0.00 0.00 0.00 0.00 0.00 0.00 0.00 0.00 0.00 0.00 0.00 0.00 0.00 0.00 0.00 0.00 0.00 0.00 0.00 0.00 0.00 0.00 0.00
0.00 0.00 0.00 0.00 0.00 0.00 0.00 0.00 0.00 0.00 0.00 0.00 0.00 0.00 0.00 0.00 0.00 0.00 0.00 0.00 0.00 0.00 0.00 0.00 0.00 0.00 0.00 0.00 0.00 0.00 0.00 0.00 0.00 0.00 0.00 0.00 0.00 0.00 0.00 0.00 0.00 0.00 0.00 0.00
0.00 0.00 0.00 0.00 0.00 0.00 0.00 0.00 0.00 0.00 0.00 0.00 0.00 0.00 0.00 0.00 0.00 0.00 0.00 0.00 0.00 0.00 0.00 0.00 0.00 0.00 0.00 0.00 0.00 0.00 0.00 0.00 0.00 0.00 0.00 0.00 0.00 0.00 0.00 0.00 0.00 0.00 0.00 0.00
0.00 0.00 0.00 0.00 0.00 0.00 0.00 0.00 0.00 0.00 0.00 0.00 0.00 0.00 0.00 0.00 0.00 0.00 0.00 0.00 0.00 0.00 0.00 0.00 0.00 0.00 0.00 0.00 0.00 0.00 0.00 0.00 0.00 0.00 0.00 0.00 0.00 0.00 0.00 0.00 0.00 0.00 0.00 0.00
0.00 0.00 0.00 0.00 0.00 0.00 0.00 0.00 0.00 0.00 0.00 0.00 0.00 0.00 0.00 0.00 0.00 0.00 0.00 0.00 0.00 0.00 0.00 0.00 0.00 0.00 0.00 0.00 0.00 0.00 0.00 0.00 0.00 0.00 0.00 0.00 0.00 0.00 0.00 0.00 0.00 0.00 0.00 0.00
0.00 0.00 0.00 0.00 0.00 0.00 0.00 0.00 0.00 0.00 0.00 0.00 0.00 0.00 0.00 0.00 0.00 0.00 0.00 0.00 0.00 0.00 0.00 0.00 0.00 0.00 0.00 0.00 0.00 0.00 0.00 0.00 0.00 0.00 0.00 0.00 0.00 0.00 0.00 0.00 0.00 0.00 0.00 0.00
MSLP
1022.14 1022.43 1022.77 1023.14 1023.51 1023.84 1024.07 1024.17 1024.09 1023.82 1023.37 1022.76 1022.02 1021.21 1020.38 1019.56 1018.81 1018.14 1017.55 1017.05 1016.62 1016.25 1015.91 1015.61 1015.33 1015.08 1014.85 1014.65 1014.49 1014.34 1014.22 1014.11 1014.00 1013.88 1013.74 1013.58 1013.40 1013.23 1013.06 1012.92 1012.82 1012.77 1012.77 1012.81
1022.33 1022.60 1022.90 1023.22 1023.51 1023.75 1023.89 1023.90 1023.76 1023.46 1023.01 1022.44 1021.78 1021.07 1020.35 1019.66 1019.03 1018.46 1017.95 1017.51 1017.11 1016.74 1016.39 1016.07 1015.76 1015.47 1015.22 1015.00 1014.83 1014.68 1014.57 1014.47 1014.38 1014.28 1014.16 1014.02 1013.86 1013.68 1013.50 1013.32 1013.17 1013.05 1012.96 1012.91
1022.48 1022.71 1022.94 1023.18 1023.38 1023.51 1023.56 1023.49 1023.30 1022.98 1022.55 1022.03 1021.45 1020.85 1020.26 1019.70 1019.18 1018.70 1018.27 1017.88 1017.51 1017.15 1016.80 1016.46 1016.14 1015.84 1015.58 1015.37 1015.20 1015.08 1014.99 1014.92 1014.86 1014.79 1014.70 1014.58 1014.42 1014.24 1014.03 1013.82 1013.61 1013.41 1013.23 1013.08
1022.57 1022.74 1022.91 1023.06 1023.17 1023.21 1023.18 1023.05 1022.82 1022.49 1022.09 1021.63 1021.14 1020.64 1020.16 1019.71 1019.29 1018.90 1018.53 1018.18 1017.83 1017.48 1017.13 1016.79 1016.47 1016.19 1015.94 1015.75 1015.61 1015.52 1015.47 1015.43 1015.41 1015.36 1015.29 1015.19 1015.03 1014.84 1014.62 1014.37 1014.11 1013.84 1013.59 1013.35
1022.58 1022.70 1022.81 1022.89 1022.93 1022.91 1022.81 1022.64 1022.39 1022.08 1021.71 1021.32 1020.91 1020.50 1020.11 1019.75 1019.40 1019.07 1018.75 1018.42 1018.09 1017.75 1017.41 1017.08 1016.77 1016.50 1016.29 1016.13 1016.02 1015.97 1015.95 1015.95 1015.95 1015.93 1015.87 1015.78 1015.63 1015.44 1015.20 1014.93 1014.63 1014.32 1014.02 1013.72
1022.48 1022.57 1022.64 1022.68 1022.68 1022.62 1022.49 1022.31 1022.07 1021.78 1021.46 1021.12 1020.78 1020.44 1020.12 1019.82 1019.52 1019.22 1018.92 1018.61 1018.28 1017.95 1017.61 1017.30 1017.01 1016.77 1016.59 1016.46 1016.39 1016.37 1016.38 1016.40 1016.42 1016.41 1016.37 1016.29 1016.15 1015.97 1015.74 1015.47 1015.17 1014.84 1014.51 1014.18
1022.25 1022.33 1022.39 1022.42 1022.41 1022.35 1022.23 1022.07 1021.86 1021.61 1021.33 1021.05 1020.76 1020.47 1020.19 1019.92 1019.64 1019.35 1019.05 1018.73 1018.40 1018.07 1017.75 1017.45 1017.19 1016.98 1016.82 1016.73 1016.69 1016.69 1016.72 1016.75 1016.78 1016.79 1016.75 1016.68 1016.57 1016.41 1016.20 1015.96 1015.68 1015.37 1015.05 1014.71
1021.88 1021.97 1022.05 1022.10 1022.11 1022.08 1022.01 1021.88 1021.72 1021.53 1021.31 1021.07 1020.82 1020.56 1020.30 1020.03 1019.75 1019.45 1019.14 1018.80 1018.47 1018.13 1017.81 1017.53 1017.29 1017.11 1016.98 1016.91 1016.89 1016.91 1016.94 1016.98 1017.01 1017.03 1017.01 1016.96 1016.87 1016.75 1016.59 1016.39 1016.16 1015.90 1015.61 1015.30
1021.37 1021.49 1021.60 1021.70 1021.76 1021.79 1021.78 1021.72 1021.63 1021.49 1021.32 1021.13 1020.91 1020.67 1020.41 1020.13 1019.83 1019.51 1019.17 1018.82 1018.47 1018.13 1017.82 1017.55 1017.33 1017.16 1017.06 1017.01 1017.00 1017.02 1017.06 1017.10 1017.13 1017.15 1017.15 1017.13 1017.08 1017.00 1016.91 1016.78 1016.62 1016.42 1016.18 1015.91
1020.75 1020.90 1021.06 1021.21 1021.35 1021.45 1021.52 1021.54 1021.52 1021.45 1021.34 1021.18 1020.99 1020.76 1020.50 1020.21 1019.89 1019.54 1019.17 1018.80 1018.43 1018.09 1017.78 1017.52 1017.31 1017.17 1017.08 1017.04 1017.04 1017.07 1017.10 1017.14 1017.18 1017.21 1017.22 1017.23 1017.22 1017.21 1017.18 1017.12 1017.03 1016.91 1016.74 1016.51
1020.07 1020.25 1020.45 1020.67 1020.87 1021.06 1021.21 1021.32 1021.37 1021.37 1021.31 1021.20 1021.03 1020.82 1020.55 1020.25 1019.90 1019.53 1019.15 1018.76 1018.38 1018.03 1017.73 1017.47 1017.28 1017.15 1017.07 1017.04 1017.05 1017.07 1017.11 1017.15 1017.19 1017.23 1017.26 1017.30 1017.34 1017.38 1017.41 1017.43 1017.42 1017.37 1017.26 1017.09
1019.36 1019.57 1019.81 1020.08 1020.36 1020.63 1020.86 1021.04 1021.17 1021.23 1021.23 1021.16 1021.02 1020.82 1020.56 1020.25 1019.89 1019.51 1019.11 1018.71 1018.33 1017.98 1017.68 1017.44 1017.25 1017.13 1017.06 1017.03 1017.04 1017.07 1017.11 1017.15 1017.20 1017.25 1017.30 1017.37 1017.44 1017.53 1017.62 1017.70 1017.76 1017.77 1017.73 1017.63
1018.70 1018.91 1019.19 1019.51 1019.85 1020.18 1020.48 1020.74 1020.93 1021.06 1021.11 1021.07 1020.96 1020.78 1020.53 1020.22 1019.87 1019.48 1019.08 1018.68 1018.30 1017.95 1017.65 1017.41 1017.24 1017.12 1017.06 1017.04 1017.05 1017.08 1017.12 1017.17 1017.22 1017.28 1017.35 1017.44 1017.55 1017.67 1017.80 1017.93 1018.04 1018.12 1018.14 1018.09
1018.10 1018.33 1018.64 1019.00 1019.38 1019.77 1020.13 1020.44 1020.69 1020.86 1020.95 1020.96 1020.88 1020.72 1020.49 1020.19 1019.84 1019.46 1019.06 1018.67 1018.29 1017.94 1017.65 1017.41 1017.24 1017.12 1017.06 1017.04 1017.06 1017.09 1017.14 1017.20 1017.26 1017.33 1017.42 1017.52 1017.64 1017.79 1017.94 1018.11 1018.26 1018.38 1018.46 1018.47
1017.59 1017.84 1018.17 1018.57 1018.99 1019.42 1019.82 1020.18 1020.46 1020.67 1020.80 1020.84 1020.79 1020.65 1020.44 1020.16 1019.83 1019.46 1019.07 1018.67 1018.30 1017.95 1017.66 1017.42 1017.24 1017.12 1017.05 1017.04 1017.05 1017.09 1017.15 1017.22 1017.29 1017.37 1017.47 1017.58 1017.71 1017.86 1018.03 1018.22 1018.40 1018.56 1018.68 1018.76
1017.17 1017.45 1017.82 1018.24 1018.70 1019.16 1019.59 1019.96 1020.28 1020.51 1020.66 1020.72 1020.69 1020.58 1020.39 1020.13 1019.82 1019.46 1019.08 1018.70 1018.32 1017.98 1017.67 1017.42 1017.23 1017.10 1017.03 1017.00 1017.02 1017.07 1017.13 1017.20 1017.29 1017.38 1017.48 1017.60 1017.74 1017.89 1018.07 1018.26 1018.45 1018.64 1018.81 1018.94
1016.83 1017.16 1017.56 1018.02 1018.50 1018.97 1019.42 1019.81 1020.13 1020.38 1020.54 1020.61 1020.60 1020.51 1020.34 1020.10 1019.81 1019.47 1019.11 1018.72 1018.35 1017.99 1017.68 1017.41 1017.20 1017.05 1016.96 1016.93 1016.94 1016.99 1017.06 1017.15 1017.25 1017.35 1017.46 1017.58 1017.72 1017.87 1018.05 1018.24 1018.44 1018.65 1018.85 1019.03
1016.57 1016.94 1017.38 1017.86 1018.36 1018.84 1019.29 1019.68 1020.00 1020.25 1020.41 1020.50 1020.50 1020.43 1020.28 1020.07 1019.80 1019.48 1019.12 1018.75 1018.37 1018.01 1017.68 1017.39 1017.15 1016.98 1016.87 1016.83 1016.83 1016.87 1016.95 1017.05 1017.16 1017.28 1017.40 1017.53 1017.67 1017.82 1017.99 1018.17 1018.37 1018.59 1018.81 1019.02
1016.35 1016.76 1017.23 1017.73 1018.23 1018.71 1019.15 1019.53 1019.84 1020.08 1020.25 1020.34 1020.36 1020.31 1020.19 1020.00 1019.76 1019.47 1019.14 1018.77 1018.40 1018.03 1017.68 1017.37 1017.11 1016.91 1016.77 1016.70 1016.69 1016.73 1016.81 1016.92 1017.04 1017.17 1017.31 1017.45 1017.59 1017.74 1017.90 1018.08 1018.27 1018.48 1018.71 1018.95
1016.17 1016.60 1017.08 1017.58 1018.07 1018.53 1018.95 1019.32 1019.62 1019.85 1020.02 1020.12 1020.16 1020.14 1020.05 1019.90 1019.70 1019.44 1019.14 1018.79 1018.43 1018.05 1017.69 1017.36 1017.07 1016.84 1016.67 1016.58 1016.55 1016.58 1016.65 1016.77 1016.90 1017.05 1017.20 1017.35 1017.51 1017.66 1017.81 1017.98 1018.17 1018.37 1018.59 1018.82
1016.00 1016.43 1016.90 1017.37 1017.84 1018.27 1018.67 1019.01 1019.29 1019.52 1019.70 1019.82 1019.88 1019.90 1019.85 1019.75 1019.60 1019.38 1019.11 1018.80 1018.45 1018.09 1017.72 1017.37 1017.06 1016.80 1016.60 1016.48 1016.42 1016.44 1016.50 1016.62 1016.76 1016.92 1017.08 1017.25 1017.41 1017.57 1017.73 1017.89 1018.06 1018.25 1018.45 1018.67
1015.85 1016.24 1016.67 1017.10 1017.52 1017.92 1018.28 1018.59 1018.87 1019.09 1019.28 1019.42 1019.52 1019.58 1019.59 1019.54 1019.44 1019.29 1019.07 1018.79 1018.47 1018.13 1017.76 1017.40 1017.07 1016.79 1016.56 1016.40 1016.32 1016.31 1016.36 1016.46 1016.61 1016.77 1016.95 1017.13 1017.31 1017.47 1017.63 1017.79 1017.95 1018.13 1018.31 1018.52
1015.71 1016.03 1016.39 1016.76 1017.13 1017.48 1017.80 1018.09 1018.35 1018.58 1018.78 1018.95 1019.09 1019.19 1019.26 1019.27 1019.24 1019.14 1018.98 1018.75 1018.47 1018.14 1017.79 1017.43 1017.09 1016.78 1016.53 1016.34 1016.22 1016.18 1016.21 1016.30 1016.44 1016.60 1016.79 1016.98 1017.17 1017.34 1017.51 1017.67 1017.83 1017.99 1018.17 1018.36
1015.57 1015.81 1016.09 1016.39 1016.69 1016.98 1017.27 1017.53 1017.78 1018.01 1018.23 1018.43 1018.60 1018.75 1018.87 1018.94 1018.96 1018.92 1018.82 1018.64 1018.40 1018.11 1017.78 1017.43 1017.08 1016.76 1016.48 1016.26 1016.11 1016.04 1016.04 1016.11 1016.23 1016.39 1016.58 1016.77 1016.97 1017.16 1017.34 1017.51 1017.67 1017.84 1018.01 1018.19
1015.43 1015.59 1015.78 1016.00 1016.24 1016.49 1016.73 1016.97 1017.21 1017.44 1017.66 1017.88 1018.09 1018.27 1018.43 1018.55 1018.62 1018.63 1018.57 1018.44 1018.24 1017.99 1017.68 1017.35 1017.01 1016.68 1016.39 1016.15 1015.97 1015.87 1015.84 1015.88 1015.98 1016.12 1016.30 1016.49 1016.70 1016.90 1017.09 1017.27 1017.45 1017.63 1017.81 1018.00
1015.29 1015.36 1015.48 1015.64 1015.82 1016.02 1016.23 1016.45 1016.67 1016.89 1017.12 1017.34 1017.56 1017.76 1017.94 1018.09 1018.19 1018.24 1018.22 1018.13 1017.97 1017.75 1017.48 1017.17 1016.85 1016.53 1016.23 1015.98 1015.79 1015.66 1015.60 1015.60 1015.68 1015.80 1015.96 1016.15 1016.35 1016.55 1016.76 1016.96 1017.16 1017.36 1017.56 1017.78
1015.11 1015.12 1015.19 1015.30 1015.43 1015.60 1015.78 1015.98 1016.18 1016.39 1016.60 1016.82 1017.03 1017.23 1017.41 1017.57 1017.68 1017.75 1017.76 1017.70 1017.58 1017.40 1017.17 1016.89 1016.60 1016.30 1016.01 1015.76 1015.56 1015.41 1015.33 1015.31 1015.35 1015.44 1015.58 1015.75 1015.94 1016.15 1016.36 1016.58 1016.80 1017.02 1017.25 1017.50
Thickness
5626 5619 5614 5608 5605 5606 5601 5594 5588 5587 5589 5590 5595 5599 5605 5611 5617 5623 5627 5630 5632 5635 5639 5643 5647 5651 5654 5656 5659 5662 5663 5664 5665 5667 5670 5671 5673 5675 5676 5676 5677 5678 5678 5677
5627 5622 5619 5613 5608 5607 5602 5598 5597 5599 5598 5599 5603 5607 5611 5614 5617 5621 5625 5629 5632 5635 5638 5642 5645 5647 5650 5653 5656 5658 5659 5659 5660 5662 5663 5664 5666 5667 5668 5668 5669 5670 5670 5670
5634 5627 5623 5617 5609 5605 5603 5602 5600 5598 5598 5603 5607 5609 5612 5616 5619 5623 5626 5629 5633 5636 5638 5641 5644 5646 5648 5651 5654 5655 5655 5656 5657 5657 5657 5658 5659 5660 5659 5660 5660 5660 5661 5662
5637 5630 5619 5618 5618 5611 5608 5607 5607 5607 5609 5610 5612 5616 5619 5621 5623 5627 5630 5633 5635 5638 5640 5643 5646 5648 5649 5650 5652 5652 5652 5652 5652 5652 5652 5651 5651 5650 5650 5651 5651 5651 5652 5652
5639 5635 5626 5622 5622 5618 5616 5614 5616 5615 5617 5620 5625 5629 5630 5629 5629 5631 5633 5636 5638 5641 5643 5645 5646 5648 5650 5650 5650 5649 5647 5647 5647 5646 5644 5644 5643 5642 5642 5642 5642 5642 5641 5642
5641 5639 5632 5633 5629 5626 5621 5622 5624 5622 5622 5625 5633 5633 5630 5632 5634 5636 5638 5640 5642 5644 5646 5646 5646 5647 5648 5647 5646 5644 5643 5642 5641 5640 5638 5636 5636 5635 5634 5634 5633 5632 5631 5631
5646 5644 5643 5638 5632 5627 5624 5629 5629 5629 5629 5629 5630 5630 5631 5635 5638 5639 5640 5642 5644 5646 5645 5645 5646 5647 5646 5645 5642 5640 5639 5638 5637 5636 5634 5632 5631 5629 5627 5626 5625 5624 5623 5622
5650 5644 5642 5642 5635 5633 5639 5638 5635 5634 5633 5632 5632 5634 5637 5639 5640 5642 5643 5644 5644 5646 5646 5646 5646 5646 5644 5641 5640 5639 5637 5636 5634 5633 5631 5629 5626 5623 5621 5619 5618 5617 5617 5616
5660 5657 5653 5650 5647 5644 5642 5641 5639 5638 5637 5636 5636 5638 5640 5641 5643 5643 5644 5645 5646 5646 5647 5648 5648 5646 5644 5641 5640 5639 5638 5635 5634 5632 5628 5625 5622 5619 5616 5614 5612 5610 5609 5609
5662 5660 5655 5652 5650 5647 5645 5643 5642 5640 5639 5639 5639 5641 5642 5643 5645 5645 5646 5647 5647 5648 5649 5649 5649 5647 5646 5644 5642 5642 5639 5637 5635 5633 5629 5624 5618 5615 5612 5609 5607 5604 5603 5602
5669 5667 5660 5656 5655 5653 5649 5646 5644 5644 5643 5642 5642 5643 5644 5645 5647 5647 5648 5649 5650 5650 5649 5651 5652 5651 5650 5648 5646 5645 5643 5640 5637 5633 5629 5624 5619 5612 5609 5604 5600 5599 5598 5598
5680 5680 5673 5668 5664 5659 5653 5649 5648 5646 5645 5645 5644 5644 5645 5647 5648 5649 5650 5652 5653 5653 5652 5654 5656 5655 5654 5651 5649 5648 5646 5642 5638 5635 5630 5627 5623 5616 5605 5603 5599 5596 5594 5594
5691 5686 5681 5675 5671 5664 5658 5654 5651 5648 5647 5646 5647 5647 5647 5648 5650 5652 5654 5655 5655 5656 5656 5658 5659 5658 5658 5655 5652 5650 5647 5643 5640 5637 5633 5630 5626 5621 5615 5607 5601 5597 5594 5592
5689 5685 5678 5675 5671 5666 5662 5657 5654 5651 5649 5648 5648 5648 5649 5651 5653 5654 5655 5657 5658 5660 5661 5662 5662 5661 5661 5659 5655 5652 5650 5643 5641 5638 5635 5632 5628 5623 5619 5615 5611 5605 5597 5592
5690 5689 5685 5680 5674 5668 5663 5659 5655 5653 5651 5650 5650 5650 5650 5651 5653 5655 5657 5659 5662 5664 5665 5665 5664 5664 5663 5661 5659 5656 5652 5648 5644 5640 5637 5633 5630 5626 5622 5617 5613 5608 5605 5599
5692 5687 5684 5679 5674 5669 5664 5660 5657 5655 5653 5651 5650 5651 5651 5652 5654 5657 5659 5661 5662 5665 5665 5666 5666 5665 5664 5663 5661 5658 5653 5646 5644 5643 5640 5636 5633 5629 5625 5620 5616 5611 5606 5602
5692 5686 5683 5679 5676 5671 5667 5664 5660 5657 5655 5652 5651 5650 5651 5653 5656 5658 5660 5662 5664 5666 5667 5668 5667 5667 5667 5666 5664 5661 5657 5651 5643 5645 5642 5639 5635 5632 5628 5623 5618 5613 5608 5602
5699 5694 5690 5685 5679 5674 5669 5665 5662 5658 5655 5653 5650 5650 5651 5653 5655 5657 5659 5663 5666 5669 5669 5669 5668 5669 5670 5669 5667 5665 5661 5656 5652 5649 5644 5640 5638 5634 5631 5626 5622 5617 5611 5606
5697 5693 5689 5685 5682 5677 5672 5668 5663 5660 5657 5653 5651 5651 5651 5652 5654 5656 5659 5662 5664 5666 5667 5668 5666 5671 5672 5670 5667 5665 5663 5659 5655 5651 5647 5640 5639 5637 5633 5630 5626 5621 5617 5611
5692 5689 5686 5682 5678 5675 5671 5668 5664 5660 5657 5654 5652 5651 5651 5652 5653 5654 5657 5660 5663 5663 5664 5665 5669 5672 5673 5671 5666 5668 5665 5661 5658 5654 5650 5647 5643 5640 5636 5632 5629 5625 5620 5615
5688 5685 5681 5678 5674 5671 5669 5667 5663 5660 5657 5654 5652 5652 5651 5651 5652 5653 5655 5658 5661 5660 5662 5664 5669 5671 5672 5670 5666 5669 5667 5664 5660 5657 5653 5650 5647 5643 5640 5636 5632 5628 5624 5619
5684 5681 5677 5675 5672 5669 5667 5666 5663 5660 5657 5655 5653 5652 5650 5650 5652 5652 5655 5655 5657 5657 5660 5666 5669 5667 5668 5666 5670 5669 5667 5665 5662 5659 5656 5653 5649 5646 5643 5639 5635 5631 5627 5622
5680 5677 5674 5672 5670 5668 5665 5663 5661 5658 5656 5655 5654 5652 5651 5650 5650 5650 5653 5655 5656 5655 5658 5664 5663 5663 5664 5668 5671 5670 5668 5666 5664 5661 5658 5655 5652 5649 5646 5642 5638 5634 5630 5625
5672 5671 5670 5668 5666 5663 5661 5660 5658 5657 5655 5653 5653 5652 5651 5650 5651 5652 5652 5651 5651 5652 5658 5661 5660 5662 5663 5670 5671 5671 5670 5667 5665 5663 5660 5657 5654 5651 5648 5644 5640 5637 5633 5628
5661 5662 5662 5661 5658 5657 5657 5657 5655 5653 5651 5651 5651 5651 5650 5650 5649 5651 5650 5651 5650 5651 5657 5659 5659 5660 5665 5669 5670 5670 5669 5667 5665 5662 5660 5657 5654 5652 5649 5646 5642 5639 5635 5631
5648 5650 5652 5652 5653 5652 5652 5651 5649 5649 5649 5648 5649 5650 5650 5649 5648 5647 5648 5650 5650 5650 5653 5656 5659 5660 5664 5666 5666 5667 5667 5665 5662 5659 5659 5657 5655 5652 5650 5647 5644 5641 5637 5634
5633 5636 5638 5640 5643 5643 5644 5644 5644 5645 5645 5646 5647 5648 5648 5647 5647 5647 5647 5648 5649 5651 5652 5654 5656 5658 5660 5661 5662 5663 5664 5664 5662 5661 5659 5657 5655 5653 5651 5648 5645 5642 5639 5635